TIME,�g�[�{�C���[-���� [L],�t���O,�����{�C���[-���� [L],�t���O,�g�[�{�C���[-���� [MJ/h],�t���O,�����{�C���[-���� [MJ/h],�t���O
2003/4/1 0:00,0.015617,0,0,0,2.2925756,0,0,0
2003/4/1 0:15,0.009499,0,0,0,1.3944532,0,0,0
2003/4/1 0:30,0.012236,0,0,0,1.7962448,0,0,0
2003/4/1 0:45,0.009177,0,0,0,1.3471836,0,0,0
2003/4/1 1:00,0.018837,0,0,0,2.7652716,0,0,0
2003/4/1 1:15,0.009499,0,0,0,1.3944532,0,0,0
2003/4/1 1:30,0.056511,0,0,0,8.2958148,0,0,0
2003/4/1 1:45,0.00805,0,0,0,1.18174,0,0,0
2003/4/1 2:00,0.006118,0,0.274344,0,0.8981224,0,40.2736992,0
2003/4/1 2:15,0,0,0.024955,0,0,0,3.663394,0
2003/4/1 2:30,0,0,0,0,0,0,0,0
2003/4/1 2:45,0,0,0,0,0,0,0,0
2003/4/1 3:00,0,0,0,0,0,0,0,0
2003/4/1 3:15,0,0,0,0,0,0,0,0
2003/4/1 3:30,0,0,0,0,0,0,0,0
2003/4/1 3:45,0,0,0,0,0,0,0,0
2003/4/1 4:00,0,0,0,0,0,0,0,0
2003/4/1 4:15,0,0,0,0,0,0,0,0
2003/4/1 4:30,0,0,0,0,0,0,0,0
2003/4/1 4:45,0,0,0,0,0,0,0,0
2003/4/1 5:00,0,0,0,0,0,0,0,0
2003/4/1 5:15,0,0,0,0,0,0,0,0
2003/4/1 5:30,0,0,0,0,0,0,0,0
2003/4/1 5:45,0,0,0,0,0,0,0,0
2003/4/1 6:00,0,0,0,0,0,0,0,0
2003/4/1 6:15,0,0,0,0,0,0,0,0
2003/4/1 6:30,0,0,0,0,0,0,0,0
2003/4/1 6:45,0,0,0,0,0,0,0,0
2003/4/1 7:00,0,0,0,0,0,0,0,0
2003/4/1 7:15,0,0,0,0,0,0,0,0
2003/4/1 7:30,0,0,0,0,0,0,0,0
2003/4/1 7:45,0,0,0,0,0,0,0,0
2003/4/1 8:00,0,0,0,0,0,0,0,0
2003/4/1 8:15,0,0,0,0,0,0,0,0
2003/4/1 8:30,0.000966,0,0.108514,0,0.1418088,0,15.9298552,0
2003/4/1 8:45,0,0,0,0,0,0,0,0
2003/4/1 9:00,0,0,0,0,0,0,0,0
2003/4/1 9:15,0,0,0,0,0,0,0,0
2003/4/1 9:30,0,0,0,0,0,0,0,0
2003/4/1 9:45,0,0,0,0,0,0,0,0
2003/4/1 10:00,0,0,0,0,0,0,0,0
2003/4/1 10:15,0,0,0,0,0,0,0,0
2003/4/1 10:30,0,0,0,0,0,0,0,0
2003/4/1 10:45,0,0,0,0,0,0,0,0
2003/4/1 11:00,0,0,0,0,0,0,0,0
2003/4/1 11:15,0,0,0,0,0,0,0,0
2003/4/1 11:30,0,0,0,0,0,0,0,0
2003/4/1 11:45,0,0,0,0,0,0,0,0
2003/4/1 12:00,0,0,0,0,0,0,0,0
2003/4/1 12:15,0,0,0,0,0,0,0,0
2003/4/1 12:30,0,0,0,0,0,0,0,0
2003/4/1 12:45,0,0,0,0,0,0,0,0
2003/4/1 13:00,0,0,0,0,0,0,0,0
2003/4/1 13:15,0,0,0,0,0,0,0,0
2003/4/1 13:30,0,0,0,0,0,0,0,0
2003/4/1 13:45,0,0,0,0,0,0,0,0
2003/4/1 14:00,0,0,0,0,0,0,0,0
2003/4/1 14:15,0,0,0,0,0,0,0,0
2003/4/1 14:30,0,0,0,0,0,0,0,0
2003/4/1 14:45,0,0,0,0,0,0,0,0
2003/4/1 15:00,0,0,0,0,0,0,0,0
2003/4/1 15:15,0,0,0,0,0,0,0,0
2003/4/1 15:30,0,0,0,0,0,0,0,0
2003/4/1 15:45,0,0,0,0,0,0,0,0
2003/4/1 16:00,0,0,0,0,0,0,0,0
2003/4/1 16:15,0,0,0,0,0,0,0,0
2003/4/1 16:30,0,0,0,0,0,0,0,0
2003/4/1 16:45,0,0,0,0,0,0,0,0
2003/4/1 17:00,0,0,0,0,0,0,0,0
2003/4/1 17:15,0,0,0,0,0,0,0,0
2003/4/1 17:30,0,0,0,0,0,0,0,0
2003/4/1 17:45,0,0,0,0,0,0,0,0
2003/4/1 18:00,0,0,0,0,0,0,0,0
2003/4/1 18:15,0,0,0,0,0,0,0,0
2003/4/1 18:30,0,0,0,0,0,0,0,0
2003/4/1 18:45,0,0,0,0,0,0,0,0
2003/4/1 19:00,0,0,0,0,0,0,0,0
2003/4/1 19:15,0.06601,0,0,0,9.690268,0,0,0
2003/4/1 19:30,0.075992,0,0,0,11.1556256,0,0,0
2003/4/1 19:45,0.052164,0,0,0,7.6576752,0,0,0
2003/4/1 20:00,0.010143,0,0,0,1.4889924,0,0,0
2003/4/1 20:15,0.0161,0,0,0,2.36348,0,0,0
2003/4/1 20:30,0.026082,0,0,0,3.8288376,0,0,0
2003/4/1 20:45,0.071645,0,0,0,10.517486,0,0,0
2003/4/1 21:00,0.072128,0,0,0,10.5883904,0,0,0
2003/4/1 21:15,0.058443,0,0,0,8.5794324,0,0,0
2003/4/1 21:30,0.067942,0,0,0,9.9738856,0,0,0
2003/4/1 21:45,0.068908,0,0,0,10.1156944,0,0,0
2003/4/1 22:00,0.020286,0,0,0,2.9779848,0,0,0
2003/4/1 22:15,0.00483,0,0,0,0.709044,0,0,0
2003/4/1 22:30,0.009499,0,0,0,1.3944532,0,0,0
2003/4/1 22:45,0.009499,0,0,0,1.3944532,0,0,0
2003/4/1 23:00,0.009982,0,0,0,1.4653576,0,0,0
2003/4/1 23:15,0.011914,0,0,0,1.7489752,0,0,0
2003/4/1 23:30,0.014329,0,0,0,2.1034972,0,0,0
2003/4/1 23:45,0.010787,0,0,0,1.5835316,0,0,0
2003/4/2 0:00,0.009016,0,0,0,1.3235488,0,0,0
2003/4/2 0:15,0.052164,0,0,0,7.6576752,0,0,0
2003/4/2 0:30,0.014812,0,0,0,2.1744016,0,0,0
2003/4/2 0:45,0.015778,0,0,0,2.3162104,0,0,0
2003/4/2 1:00,0.001449,0,0,0,0.2127132,0,0,0
2003/4/2 1:15,0,0,0,0,0,0,0,0
2003/4/2 1:30,0,0,0,0,0,0,0,0
2003/4/2 1:45,0,0,0,0,0,0,0,0
2003/4/2 2:00,0,0,0,0,0,0,0,0
2003/4/2 2:15,0,0,0,0,0,0,0,0
2003/4/2 2:30,0,0,0,0,0,0,0,0
2003/4/2 2:45,0,0,0,0,0,0,0,0
2003/4/2 3:00,0,0,0,0,0,0,0,0
2003/4/2 3:15,0,0,0,0,0,0,0,0
2003/4/2 3:30,0,0,0,0,0,0,0,0
2003/4/2 3:45,0,0,0,0,0,0,0,0
2003/4/2 4:00,0,0,0,0,0,0,0,0
2003/4/2 4:15,0,0,0,0,0,0,0,0
2003/4/2 4:30,0,0,0,0,0,0,0,0
2003/4/2 4:45,0,0,0,0,0,0,0,0
2003/4/2 5:00,0,0,0,0,0,0,0,0
2003/4/2 5:15,0,0,0,0,0,0,0,0
2003/4/2 5:30,0,0,0,0,0,0,0,0
2003/4/2 5:45,0,0,0,0,0,0,0,0
2003/4/2 6:00,0,0,0,0,0,0,0,0
2003/4/2 6:15,0,0,0,0,0,0,0,0
2003/4/2 6:30,0,0,0,0,0,0,0,0
2003/4/2 6:45,0,0,0,0,0,0,0,0
2003/4/2 7:00,0,0,0,0,0,0,0,0
2003/4/2 7:15,0.086296,0,0,0,12.6682528,0,0,0
2003/4/2 7:30,0.070196,0,0,0,10.3047728,0,0,0
2003/4/2 7:45,0.070196,0,0,0,10.3047728,0,0,0
2003/4/2 8:00,0.071645,0,0,0,10.517486,0,0,0
2003/4/2 8:15,0.072128,0,0,0,10.5883904,0,0,0
2003/4/2 8:30,0.071806,0,0.118496,0,10.5411208,0,17.3952128,0
2003/4/2 8:45,0,0,0.005152,0,0,0,0.7563136,0
2003/4/2 9:00,0,0,0,0,0,0,0,0
2003/4/2 9:15,0,0,0,0,0,0,0,0
2003/4/2 9:30,0,0,0,0,0,0,0,0
2003/4/2 9:45,0,0,0,0,0,0,0,0
2003/4/2 10:00,0,0,0,0,0,0,0,0
2003/4/2 10:15,0,0,0,0,0,0,0,0
2003/4/2 10:30,0,0,0,0,0,0,0,0
2003/4/2 10:45,0,0,0,0,0,0,0,0
2003/4/2 11:00,0,0,0,0,0,0,0,0
2003/4/2 11:15,0,0,0,0,0,0,0,0
2003/4/2 11:30,0,0,0,0,0,0,0,0
2003/4/2 11:45,0,0,0,0,0,0,0,0
2003/4/2 12:00,0,0,0,0,0,0,0,0
2003/4/2 12:15,0,0,0,0,0,0,0,0
2003/4/2 12:30,0,0,0,0,0,0,0,0
2003/4/2 12:45,0,0,0,0,0,0,0,0
2003/4/2 13:00,0,0,0,0,0,0,0,0
2003/4/2 13:15,0,0,0,0,0,0,0,0
2003/4/2 13:30,0,0,0,0,0,0,0,0
2003/4/2 13:45,0,0,0,0,0,0,0,0
2003/4/2 14:00,0,0,0,0,0,0,0,0
2003/4/2 14:15,0,0,0,0,0,0,0,0
2003/4/2 14:30,0,0,0,0,0,0,0,0
2003/4/2 14:45,0,0,0,0,0,0,0,0
2003/4/2 15:00,0,0,0,0,0,0,0,0
2003/4/2 15:15,0,0,0,0,0,0,0,0
2003/4/2 15:30,0,0,0,0,0,0,0,0
2003/4/2 15:45,0,0,0,0,0,0,0,0
2003/4/2 16:00,0,0,0,0,0,0,0,0
2003/4/2 16:15,0,0,0,0,0,0,0,0
2003/4/2 16:30,0,0,0,0,0,0,0,0
2003/4/2 16:45,0,0,0,0,0,0,0,0
2003/4/2 17:00,0,0,0,0,0,0,0,0
2003/4/2 17:15,0,0,0,0,0,0,0,0
2003/4/2 17:30,0.010787,0,0,0,1.5835316,0,0,0
2003/4/2 17:45,0.089033,0,0,0,13.0700444,0,0,0
2003/4/2 18:00,0.069874,0,0,0,10.2575032,0,0,0
2003/4/2 18:15,0.070196,0,0,0,10.3047728,0,0,0
2003/4/2 18:30,0.071162,0,0,0,10.4465816,0,0,0
2003/4/2 18:45,0.021574,0,0,0,3.1670632,0,0,0
2003/4/2 19:00,0.016583,0,0,0,2.4343844,0,0,0
2003/4/2 19:15,0.019803,0,0,0,2.9070804,0,0,0
2003/4/2 19:30,0.035259,0,0,0,5.1760212,0,0,0
2003/4/2 19:45,0.070518,0,0,0,10.3520424,0,0,0
2003/4/2 20:00,0.044114,0,0,0,6.4759352,0,0,0
2003/4/2 20:15,0.00483,0,0,0,0.709044,0,0,0
2003/4/2 20:30,0.054096,0,0,0,7.9412928,0,0,0
2003/4/2 20:45,0.032844,0,0,0,4.8214992,0,0,0
2003/4/2 21:00,0.004669,0,0,0,0.6854092,0,0,0
2003/4/2 21:15,0.018354,0,0,0,2.6943672,0,0,0
2003/4/2 21:30,0.029141,0,0,0,4.2778988,0,0,0
2003/4/2 21:45,0.031556,0,0,0,4.6324208,0,0,0
2003/4/2 22:00,0.016583,0,0,0,2.4343844,0,0,0
2003/4/2 22:15,0.013846,0,0,0,2.0325928,0,0,0
2003/4/2 22:30,0.024794,0,0,0,3.6397592,0,0,0
2003/4/2 22:45,0.066171,0,0,0,9.7139028,0,0,0
2003/4/2 23:00,0.067942,0,0,0,9.9738856,0,0,0
2003/4/2 23:15,0.050071,0,0,0,7.3504228,0,0,0
2003/4/2 23:30,0.008211,0,0,0,1.2053748,0,0,0
2003/4/2 23:45,0.006118,0,0,0,0.8981224,0,0,0
2003/4/3 0:00,0.010626,0,0,0,1.5598968,0,0,0
2003/4/3 0:15,0.015134,0,0,0,2.2216712,0,0,0
2003/4/3 0:30,0.01127,0,0,0,1.654436,0,0,0
2003/4/3 0:45,0.009338,0,0,0,1.3708184,0,0,0
2003/4/3 1:00,0.015456,0,0,0,2.2689408,0,0,0
2003/4/3 1:15,0.058926,0,0,0,8.6503368,0,0,0
2003/4/3 1:30,0.052647,0,0,0,7.7285796,0,0,0
2003/4/3 1:45,0.014651,0,0,0,2.1507668,0,0,0
2003/4/3 2:00,0.007245,0,0,0,1.063566,0,0,0
2003/4/3 2:15,0.006762,0,0,0,0.9926616,0,0,0
2003/4/3 2:30,0.014007,0,0,0,2.0562276,0,0,0
2003/4/3 2:45,0.009338,0,0,0,1.3708184,0,0,0
2003/4/3 3:00,0.011592,0,0,0,1.7017056,0,0,0
2003/4/3 3:15,0.00966,0,0,0,1.418088,0,0,0
2003/4/3 3:30,0.015778,0,0,0,2.3162104,0,0,0
2003/4/3 3:45,0.015134,0,0,0,2.2216712,0,0,0
2003/4/3 4:00,0.010143,0,0,0,1.4889924,0,0,0
2003/4/3 4:15,0.017227,0,0,0,2.5289236,0,0,0
2003/4/3 4:30,0.00966,0,0,0,1.418088,0,0,0
2003/4/3 4:45,0.017227,0,0,0,2.5289236,0,0,0
2003/4/3 5:00,0.012236,0,0,0,1.7962448,0,0,0
2003/4/3 5:15,0.026404,0,0,0,3.8761072,0,0,0
2003/4/3 5:30,0.009016,0,0,0,1.3235488,0,0,0
2003/4/3 5:45,0.024472,0,0,0,3.5924896,0,0,0
2003/4/3 6:00,0.009016,0,0,0,1.3235488,0,0,0
2003/4/3 6:15,0.021413,0,0,0,3.1434284,0,0,0
2003/4/3 6:30,0.019803,0,0,0,2.9070804,0,0,0
2003/4/3 6:45,0.015617,0,0,0,2.2925756,0,0,0
2003/4/3 7:00,0.029302,0,0,0,4.3015336,0,0,0
2003/4/3 7:15,0.009338,0,0,0,1.3708184,0,0,0
2003/4/3 7:30,0.012719,0,0,0,1.8671492,0,0,0
2003/4/3 7:45,0.009499,0,0,0,1.3944532,0,0,0
2003/4/3 8:00,0.014973,0,0,0,2.1980364,0,0,0
2003/4/3 8:15,0.004669,0,0,0,0.6854092,0,0,0
2003/4/3 8:30,0.025438,0,0,0,3.7342984,0,0,0
2003/4/3 8:45,0.004347,0,0,0,0.6381396,0,0,0
2003/4/3 9:00,0,0,0,0,0,0,0,0
2003/4/3 9:15,0,0,0,0,0,0,0,0
2003/4/3 9:30,0,0,0,0,0,0,0,0
2003/4/3 9:45,0,0,0,0,0,0,0,0
2003/4/3 10:00,0.005796,0,0.115598,0,0.8508528,0,16.9697864,0
2003/4/3 10:15,0,0,0,0,0,0,0,0
2003/4/3 10:30,0,0,0,0,0,0,0,0
2003/4/3 10:45,0,0,0,0,0,0,0,0
2003/4/3 11:00,0,0,0,0,0,0,0,0
2003/4/3 11:15,0,0,0,0,0,0,0,0
2003/4/3 11:30,0,0,0,0,0,0,0,0
2003/4/3 11:45,0,0,0,0,0,0,0,0
2003/4/3 12:00,0,0,0,0,0,0,0,0
2003/4/3 12:15,0,0,0,0,0,0,0,0
2003/4/3 12:30,0,0,0,0,0,0,0,0
2003/4/3 12:45,0,0,0,0,0,0,0,0
2003/4/3 13:00,0,0,0,0,0,0,0,0
2003/4/3 13:15,0,0,0,0,0,0,0,0
2003/4/3 13:30,0,0,0,0,0,0,0,0
2003/4/3 13:45,0,0,0,0,0,0,0,0
2003/4/3 14:00,0,0,0,0,0,0,0,0
2003/4/3 14:15,0,0,0,0,0,0,0,0
2003/4/3 14:30,0,0,0,0,0,0,0,0
2003/4/3 14:45,0,0,0,0,0,0,0,0
2003/4/3 15:00,0,0,0,0,0,0,0,0
2003/4/3 15:15,0,0,0,0,0,0,0,0
2003/4/3 15:30,0,0,0,0,0,0,0,0
2003/4/3 15:45,0,0,0,0,0,0,0,0
2003/4/3 16:00,0,0,0,0,0,0,0,0
2003/4/3 16:15,0,0,0,0,0,0,0,0
2003/4/3 16:30,0,0,0,0,0,0,0,0
2003/4/3 16:45,0,0,0,0,0,0,0,0
2003/4/3 17:00,0,0,0,0,0,0,0,0
2003/4/3 17:15,0,0,0,0,0,0,0,0
2003/4/3 17:30,0,0,0,0,0,0,0,0
2003/4/3 17:45,0,0,0,0,0,0,0,0
2003/4/3 18:00,0,0,0,0,0,0,0,0
2003/4/3 18:15,0,0,0,0,0,0,0,0
2003/4/3 18:30,0,0,0,0,0,0,0,0
2003/4/3 18:45,0,0,0,0,0,0,0,0
2003/4/3 19:00,0,0,0,0,0,0,0,0
2003/4/3 19:15,0,0,0,0,0,0,0,0
2003/4/3 19:30,0,0,0,0,0,0,0,0
2003/4/3 19:45,0,0,0,0,0,0,0,0
2003/4/3 20:00,0,0,0,0,0,0,0,0
2003/4/3 20:15,0,0,0,0,0,0,0,0
2003/4/3 20:30,0,0,0,0,0,0,0,0
2003/4/3 20:45,0,0,0,0,0,0,0,0
2003/4/3 21:00,0,0,0,0,0,0,0,0
2003/4/3 21:15,0,0,0,0,0,0,0,0
2003/4/3 21:30,0.001127,0,0.140875,0,0.1654436,0,20.68045,0
2003/4/3 21:45,0.030268,0,0.508277,0,4.4433424,0,74.6150636,0
2003/4/3 22:00,0.075348,0,0.135562,0,11.0610864,0,19.9005016,0
2003/4/3 22:15,0.025921,0,0,0,3.8052028,0,0,0
2003/4/3 22:30,0.026082,0,0.030268,0,3.8288376,0,4.4433424,0
2003/4/3 22:45,0.051681,0,0.060053,0,7.5867708,0,8.8157804,0
2003/4/3 23:00,0.05957,0,0,0,8.744876,0,0,0
2003/4/3 23:15,0.051359,0,0,0,7.5395012,0,0,0
2003/4/3 23:30,0.050876,0,0,0,7.4685968,0,0,0
2003/4/3 23:45,0.015939,0,0,0,2.3398452,0,0,0
2003/4/4 0:00,0.070196,0,0,0,10.3047728,0,0,0
2003/4/4 0:15,0.045241,0,0,0,6.6413788,0,0,0
2003/4/4 0:30,0.016905,0,0,0,2.481654,0,0,0
2003/4/4 0:45,0.036869,0,0,0,5.4123692,0,0,0
2003/4/4 1:00,0.02737,0,0,0,4.017916,0,0,0
2003/4/4 1:15,0.024794,0,0,0,3.6397592,0,0,0
2003/4/4 1:30,0.006118,0.666666667,0.242305,0,0.8981224,0.666666667,35.570374,0
2003/4/4 1:45,0,1,0,0,0,1,0,0
2003/4/4 2:00,0,1,0,0,0,1,0,0
2003/4/4 2:15,0,1,0,0,0,1,0,0
2003/4/4 2:30,0,1,0,0,0,1,0,0
2003/4/4 2:45,0,1,0,0,0,1,0,0
2003/4/4 3:00,0,1,0,0,0,1,0,0
2003/4/4 3:15,0,1,0,0,0,1,0,0
2003/4/4 3:30,0,1,0,0,0,1,0,0
2003/4/4 3:45,0,1,0,0,0,1,0,0
2003/4/4 4:00,0,1,0,0,0,1,0,0
2003/4/4 4:15,0,1,0,0,0,1,0,0
2003/4/4 4:30,0,1,0,0,0,1,0,0
2003/4/4 4:45,0,1,0,0,0,1,0,0
2003/4/4 5:00,0,1,0,0,0,1,0,0
2003/4/4 5:15,0,1,0,0,0,1,0,0
2003/4/4 5:30,0,1,0,0,0,1,0,0
2003/4/4 5:45,0,1,0,0,0,1,0,0
2003/4/4 6:00,0,1,0,0,0,1,0,0
2003/4/4 6:15,0,1,0,0,0,1,0,0
2003/4/4 6:30,0,1,0,0,0,1,0,0
2003/4/4 6:45,0,1,0,0,0,1,0,0
2003/4/4 7:00,0,1,0,0,0,1,0,0
2003/4/4 7:15,0,1,0,0,0,1,0,0
2003/4/4 7:30,0,1,0,0,0,1,0,0
2003/4/4 7:45,0,1,0,0,0,1,0,0
2003/4/4 8:00,0,1,0,0,0,1,0,0
2003/4/4 8:15,0,1,0,0,0,1,0,0
2003/4/4 8:30,0,1,0.090482,0,0,1,13.2827576,0
2003/4/4 8:45,0,1,0,0,0,1,0,0
2003/4/4 9:00,0,1,0,0,0,1,0,0
2003/4/4 9:15,0,1,0,0,0,1,0,0
2003/4/4 9:30,0,1,0,0,0,1,0,0
2003/4/4 9:45,0,1,0,0,0,1,0,0
2003/4/4 10:00,0,1,0,0,0,1,0,0
2003/4/4 10:15,0,1,0,0,0,1,0,0
2003/4/4 10:30,0,1,0,0,0,1,0,0
2003/4/4 10:45,0,1,0,0,0,1,0,0
2003/4/4 11:00,0,1,0,0,0,1,0,0
2003/4/4 11:15,0,1,0,0,0,1,0,0
2003/4/4 11:30,0,1,0,0,0,1,0,0
2003/4/4 11:45,0,1,0,0,0,1,0,0
2003/4/4 12:00,0,1,0,0,0,1,0,0
2003/4/4 12:15,0,1,0,0,0,1,0,0
2003/4/4 12:30,0,1,0,0,0,1,0,0
2003/4/4 12:45,0,1,0,0,0,1,0,0
2003/4/4 13:00,0,1,0,0,0,1,0,0
2003/4/4 13:15,0,1,0,0,0,1,0,0
2003/4/4 13:30,0,1,0,0,0,1,0,0
2003/4/4 13:45,0,1,0,0,0,1,0,0
2003/4/4 14:00,0,1,0,0,0,1,0,0
2003/4/4 14:15,0,1,0,0,0,1,0,0
2003/4/4 14:30,0,1,0,0,0,1,0,0
2003/4/4 14:45,0,1,0,0,0,1,0,0
2003/4/4 15:00,0,1,0,0,0,1,0,0
2003/4/4 15:15,0,1,0,0,0,1,0,0
2003/4/4 15:30,0,1,0,0,0,1,0,0
2003/4/4 15:45,0,1,0,0,0,1,0,0
2003/4/4 16:00,0,1,0,0,0,1,0,0
2003/4/4 16:15,0,1,0,0,0,1,0,0
2003/4/4 16:30,0,1,0,0,0,1,0,0
2003/4/4 16:45,0,1,0,0,0,1,0,0
2003/4/4 17:00,0,1,0,0,0,1,0,0
2003/4/4 17:15,0,1,0,0,0,1,0,0
2003/4/4 17:30,0,1,0,0,0,1,0,0
2003/4/4 17:45,0,1,0,0,0,1,0,0
2003/4/4 18:00,0,1,0,0,0,1,0,0
2003/4/4 18:15,0,1,0,0,0,1,0,0
2003/4/4 18:30,0,1,0,0,0,1,0,0
2003/4/4 18:45,0,1,0,0,0,1,0,0
2003/4/4 19:00,0,1,0,0,0,1,0,0
2003/4/4 19:15,0,1,0,0,0,1,0,0
2003/4/4 19:30,0,1,0,0,0,1,0,0
2003/4/4 19:45,0,1,0,0,0,1,0,0
2003/4/4 20:00,0,1,0,0,0,1,0,0
2003/4/4 20:15,0,1,0,0,0,1,0,0
2003/4/4 20:30,0,1,0,0,0,1,0,0
2003/4/4 20:45,0,1,0,0,0,1,0,0
2003/4/4 21:00,0,1,0,0,0,1,0,0
2003/4/4 21:15,0,1,0,0,0,1,0,0
2003/4/4 21:30,0,1,0,0,0,1,0,0
2003/4/4 21:45,0,1,0,0,0,1,0,0
2003/4/4 22:00,0,1,0,0,0,1,0,0
2003/4/4 22:15,0,1,0,0,0,1,0,0
2003/4/4 22:30,0,1,0,0,0,1,0,0
2003/4/4 22:45,0,1,0,0,0,1,0,0
2003/4/4 23:00,0,1,0,0,0,1,0,0
2003/4/4 23:15,0,1,0,0,0,1,0,0
2003/4/4 23:30,0,1,0,0,0,1,0,0
2003/4/4 23:45,0,1,0,0,0,1,0,0
2003/4/5 0:00,0,1,0,0,0,1,0,0
2003/4/5 0:15,0,1,0,0,0,1,0,0
2003/4/5 0:30,0,1,0,0,0,1,0,0
2003/4/5 0:45,0,1,0,0,0,1,0,0
2003/4/5 1:00,0,1,0,0,0,1,0,0
2003/4/5 1:15,0,1,0,0,0,1,0,0
2003/4/5 1:30,0,1,0,0,0,1,0,0
2003/4/5 1:45,0,1,0,0,0,1,0,0
2003/4/5 2:00,0,1,0,0,0,1,0,0
2003/4/5 2:15,0,1,0,0,0,1,0,0
2003/4/5 2:30,0,1,0,0,0,1,0,0
2003/4/5 2:45,0,1,0,0,0,1,0,0
2003/4/5 3:00,0,1,0,0,0,1,0,0
2003/4/5 3:15,0,1,0,0,0,1,0,0
2003/4/5 3:30,0,1,0,0,0,1,0,0
2003/4/5 3:45,0,1,0,0,0,1,0,0
2003/4/5 4:00,0,1,0,0,0,1,0,0
2003/4/5 4:15,0,1,0,0,0,1,0,0
2003/4/5 4:30,0,1,0,0,0,1,0,0
2003/4/5 4:45,0,1,0,0,0,1,0,0
2003/4/5 5:00,0,1,0,0,0,1,0,0
2003/4/5 5:15,0,1,0,0,0,1,0,0
2003/4/5 5:30,0,1,0,0,0,1,0,0
2003/4/5 5:45,0,1,0,0,0,1,0,0
2003/4/5 6:00,0,1,0,0,0,1,0,0
2003/4/5 6:15,0,1,0,0,0,1,0,0
2003/4/5 6:30,0,1,0,0,0,1,0,0
2003/4/5 6:45,0,1,0,0,0,1,0,0
2003/4/5 7:00,0,1,0,0,0,1,0,0
2003/4/5 7:15,0,1,0,0,0,1,0,0
2003/4/5 7:30,0,1,0,0,0,1,0,0
2003/4/5 7:45,0,1,0.065044,0,0,1,9.5484592,0
2003/4/5 8:00,0,1,0,0,0,1,0,0
2003/4/5 8:15,0,1,0,0,0,1,0,0
2003/4/5 8:30,0,1,0,0,0,1,0,0
2003/4/5 8:45,0,1,0,0,0,1,0,0
2003/4/5 9:00,0,1,0,0,0,1,0,0
2003/4/5 9:15,0,1,0,0,0,1,0,0
2003/4/5 9:30,0,1,0,0,0,1,0,0
2003/4/5 9:45,0,1,0,0,0,1,0,0
2003/4/5 10:00,0,1,0,0,0,1,0,0
2003/4/5 10:15,0,1,0,0,0,1,0,0
2003/4/5 10:30,0,1,0,0,0,1,0,0
2003/4/5 10:45,0,1,0,0,0,1,0,0
2003/4/5 11:00,0,1,0,0,0,1,0,0
2003/4/5 11:15,0,1,0,0,0,1,0,0
2003/4/5 11:30,0,1,0,0,0,1,0,0
2003/4/5 11:45,0,1,0,0,0,1,0,0
2003/4/5 12:00,0,1,0,0,0,1,0,0
2003/4/5 12:15,0,1,0,0,0,1,0,0
2003/4/5 12:30,0,1,0,0,0,1,0,0
2003/4/5 12:45,0,1,0,0,0,1,0,0
2003/4/5 13:00,0,1,0,0,0,1,0,0
2003/4/5 13:15,0,1,0,0,0,1,0,0
2003/4/5 13:30,0,1,0,0,0,1,0,0
2003/4/5 13:45,0,1,0,0,0,1,0,0
2003/4/5 14:00,0,1,0,0,0,1,0,0
2003/4/5 14:15,0,1,0,0,0,1,0,0
2003/4/5 14:30,0,1,0,0,0,1,0,0
2003/4/5 14:45,0,1,0,0,0,1,0,0
2003/4/5 15:00,0,1,0,0,0,1,0,0
2003/4/5 15:15,0,1,0,0,0,1,0,0
2003/4/5 15:30,0,1,0,0,0,1,0,0
2003/4/5 15:45,0,1,0,0,0,1,0,0
2003/4/5 16:00,0,1,0,0,0,1,0,0
2003/4/5 16:15,0,1,0,0,0,1,0,0
2003/4/5 16:30,0,1,0,0,0,1,0,0
2003/4/5 16:45,0,1,0,0,0,1,0,0
2003/4/5 17:00,0,1,0,0,0,1,0,0
2003/4/5 17:15,0,1,0,0,0,1,0,0
2003/4/5 17:30,0,1,0,0,0,1,0,0
2003/4/5 17:45,0,1,0,0,0,1,0,0
2003/4/5 18:00,0,1,0,0,0,1,0,0
2003/4/5 18:15,0,1,0,0,0,1,0,0
2003/4/5 18:30,0,1,0,0,0,1,0,0
2003/4/5 18:45,0,1,0,0,0,1,0,0
2003/4/5 19:00,0,1,0,0,0,1,0,0
2003/4/5 19:15,0,1,0,0,0,1,0,0
2003/4/5 19:30,0,1,0,0,0,1,0,0
2003/4/5 19:45,0,1,0,0,0,1,0,0
2003/4/5 20:00,0,1,0,0,0,1,0,0
2003/4/5 20:15,0,1,0,0,0,1,0,0
2003/4/5 20:30,0,1,0,0,0,1,0,0
2003/4/5 20:45,0,1,0,0,0,1,0,0
2003/4/5 21:00,0,1,0,0,0,1,0,0
2003/4/5 21:15,0,1,0,0,0,1,0,0
2003/4/5 21:30,0,1,0.205597,0,0,1,30.1816396,0
2003/4/5 21:45,0,1,0.461587,0,0,1,67.7609716,0
2003/4/5 22:00,0,1,0.225883,0,0,1,33.1596244,0
2003/4/5 22:15,0,1,0.017066,0,0,1,2.5052888,0
2003/4/5 22:30,0,1,0.070679,0,0,1,10.3756772,0
2003/4/5 22:45,0,1,0.077924,0,0,1,11.4392432,0
2003/4/5 23:00,0,1,0.05152,0,0,1,7.563136,0
2003/4/5 23:15,0,1,0.126063,0,0,1,18.5060484,0
2003/4/5 23:30,0,1,0.145544,0,0,1,21.3658592,0
2003/4/5 23:45,0,1,0,0,0,1,0,0
2003/4/6 0:00,0,1,0,0,0,1,0,0
2003/4/6 0:15,0,1,0,0,0,1,0,0
2003/4/6 0:30,0,1,0,0,0,1,0,0
2003/4/6 0:45,0,1,0,0,0,1,0,0
2003/4/6 1:00,0,1,0,0,0,1,0,0
2003/4/6 1:15,0,1,0,0,0,1,0,0
2003/4/6 1:30,0,1,0,0,0,1,0,0
2003/4/6 1:45,0,1,0,0,0,1,0,0
2003/4/6 2:00,0,1,0.132181,0,0,1,19.4041708,0
2003/4/6 2:15,0,1,0,0,0,1,0,0
2003/4/6 2:30,0,1,0,0,0,1,0,0
2003/4/6 2:45,0,1,0,0,0,1,0,0
2003/4/6 3:00,0,1,0,0,0,1,0,0
2003/4/6 3:15,0,1,0,0,0,1,0,0
2003/4/6 3:30,0,1,0,0,0,1,0,0
2003/4/6 3:45,0,1,0,0,0,1,0,0
2003/4/6 4:00,0,1,0,0,0,1,0,0
2003/4/6 4:15,0,1,0,0,0,1,0,0
2003/4/6 4:30,0,1,0,0,0,1,0,0
2003/4/6 4:45,0,1,0,0,0,1,0,0
2003/4/6 5:00,0,1,0,0,0,1,0,0
2003/4/6 5:15,0,1,0,0,0,1,0,0
2003/4/6 5:30,0,1,0,0,0,1,0,0
2003/4/6 5:45,0,1,0,0,0,1,0,0
2003/4/6 6:00,0,1,0,0,0,1,0,0
2003/4/6 6:15,0,1,0,0,0,1,0,0
2003/4/6 6:30,0,1,0,0,0,1,0,0
2003/4/6 6:45,0,1,0,0,0,1,0,0
2003/4/6 7:00,0,1,0,0,0,1,0,0
2003/4/6 7:15,0,1,0,0,0,1,0,0
2003/4/6 7:30,0,1,0,0,0,1,0,0
2003/4/6 7:45,0,1,0.108031,0,0,1,15.8589508,0
2003/4/6 8:00,0,1,0,0,0,1,0,0
2003/4/6 8:15,0,1,0,0,0,1,0,0
2003/4/6 8:30,0,1,0,0,0,1,0,0
2003/4/6 8:45,0,1,0,0,0,1,0,0
2003/4/6 9:00,0,1,0,0,0,1,0,0
2003/4/6 9:15,0,1,0,0,0,1,0,0
2003/4/6 9:30,0,1,0,0,0,1,0,0
2003/4/6 9:45,0,1,0,0,0,1,0,0
2003/4/6 10:00,0,1,0,0,0,1,0,0
2003/4/6 10:15,0,1,0,0,0,1,0,0
2003/4/6 10:30,0,1,0,0,0,1,0,0
2003/4/6 10:45,0,1,0,0,0,1,0,0
2003/4/6 11:00,0,1,0,0,0,1,0,0
2003/4/6 11:15,0,1,0,0,0,1,0,0
2003/4/6 11:30,0,1,0,0,0,1,0,0
2003/4/6 11:45,0,1,0,0,0,1,0,0
2003/4/6 12:00,0,1,0,0,0,1,0,0
2003/4/6 12:15,0,1,0,0,0,1,0,0
2003/4/6 12:30,0,1,0,0,0,1,0,0
2003/4/6 12:45,0,1,0,0,0,1,0,0
2003/4/6 13:00,0,1,0,0,0,1,0,0
2003/4/6 13:15,0,1,0,0,0,1,0,0
2003/4/6 13:30,0,1,0,0,0,1,0,0
2003/4/6 13:45,0,1,0,0,0,1,0,0
2003/4/6 14:00,0,1,0,0,0,1,0,0
2003/4/6 14:15,0,1,0,0,0,1,0,0
2003/4/6 14:30,0,1,0,0,0,1,0,0
2003/4/6 14:45,0,1,0,0,0,1,0,0
2003/4/6 15:00,0,1,0,0,0,1,0,0
2003/4/6 15:15,0,1,0,0,0,1,0,0
2003/4/6 15:30,0,1,0,0,0,1,0,0
2003/4/6 15:45,0,1,0,0,0,1,0,0
2003/4/6 16:00,0,1,0,0,0,1,0,0
2003/4/6 16:15,0,1,0,0,0,1,0,0
2003/4/6 16:30,0,1,0,0,0,1,0,0
2003/4/6 16:45,0,1,0,0,0,1,0,0
2003/4/6 17:00,0,1,0,0,0,1,0,0
2003/4/6 17:15,0,1,0,0,0,1,0,0
2003/4/6 17:30,0,1,0,0,0,1,0,0
2003/4/6 17:45,0,1,0,0,0,1,0,0
2003/4/6 18:00,0,1,0,0,0,1,0,0
2003/4/6 18:15,0,1,0,0,0,1,0,0
2003/4/6 18:30,0,1,0,0,0,1,0,0
2003/4/6 18:45,0,1,0,0,0,1,0,0
2003/4/6 19:00,0,1,0,0,0,1,0,0
2003/4/6 19:15,0,1,0,0,0,1,0,0
2003/4/6 19:30,0,1,0,0,0,1,0,0
2003/4/6 19:45,0,1,0,0,0,1,0,0
2003/4/6 20:00,0,1,0,0,0,1,0,0
2003/4/6 20:15,0,1,0,0,0,1,0,0
2003/4/6 20:30,0,1,0,0,0,1,0,0
2003/4/6 20:45,0,1,0,0,0,1,0,0
2003/4/6 21:00,0,1,0,0,0,1,0,0
2003/4/6 21:15,0,1,0,0,0,1,0,0
2003/4/6 21:30,0,1,0,0,0,1,0,0
2003/4/6 21:45,0,1,0,0,0,1,0,0
2003/4/6 22:00,0,1,0,0,0,1,0,0
2003/4/6 22:15,0,1,0,0,0,1,0,0
2003/4/6 22:30,0,1,0,0,0,1,0,0
2003/4/6 22:45,0,1,0,0,0,1,0,0
2003/4/6 23:00,0,1,0,0,0,1,0,0
2003/4/6 23:15,0,1,0,0,0,1,0,0
2003/4/6 23:30,0,1,0,0,0,1,0,0
2003/4/6 23:45,0,1,0,0,0,1,0,0
2003/4/7 0:00,0,1,0,0,0,1,0,0
2003/4/7 0:15,0,1,0,0,0,1,0,0
2003/4/7 0:30,0,1,0,0,0,1,0,0
2003/4/7 0:45,0,1,0,0,0,1,0,0
2003/4/7 1:00,0,1,0,0,0,1,0,0
2003/4/7 1:15,0,1,0,0,0,1,0,0
2003/4/7 1:30,0,1,0,0,0,1,0,0
2003/4/7 1:45,0,1,0,0,0,1,0,0
2003/4/7 2:00,0,1,0,0,0,1,0,0
2003/4/7 2:15,0,1,0,0,0,1,0,0
2003/4/7 2:30,0,1,0,0,0,1,0,0
2003/4/7 2:45,0,1,0,0,0,1,0,0
2003/4/7 3:00,0,1,0,0,0,1,0,0
2003/4/7 3:15,0,1,0,0,0,1,0,0
2003/4/7 3:30,0,1,0,0,0,1,0,0
2003/4/7 3:45,0,1,0,0,0,1,0,0
2003/4/7 4:00,0,1,0,0,0,1,0,0
2003/4/7 4:15,0,1,0,0,0,1,0,0
2003/4/7 4:30,0,1,0,0,0,1,0,0
2003/4/7 4:45,0,1,0,0,0,1,0,0
2003/4/7 5:00,0,1,0,0,0,1,0,0
2003/4/7 5:15,0,1,0,0,0,1,0,0
2003/4/7 5:30,0,1,0,0,0,1,0,0
2003/4/7 5:45,0,1,0.12719,0,0,1,18.671492,0
2003/4/7 6:00,0,1,0,0,0,1,0,0
2003/4/7 6:15,0,1,0.134435,0,0,1,19.735058,0
2003/4/7 6:30,0,1,0,0,0,1,0,0
2003/4/7 6:45,0,1,0,0,0,1,0,0
2003/4/7 7:00,0,1,0,0,0,1,0,0
2003/4/7 7:15,0,1,0,0,0,1,0,0
2003/4/7 7:30,0,1,0,0,0,1,0,0
2003/4/7 7:45,0,1,0,0,0,1,0,0
2003/4/7 8:00,0,1,0,0,0,1,0,0
2003/4/7 8:15,0,1,0,0,0,1,0,0
2003/4/7 8:30,0,1,0,0,0,1,0,0
2003/4/7 8:45,0,1,0,0,0,1,0,0
2003/4/7 9:00,0,1,0,0,0,1,0,0
2003/4/7 9:15,0,1,0,0,0,1,0,0
2003/4/7 9:30,0,1,0,0,0,1,0,0
2003/4/7 9:45,0,1,0,0,0,1,0,0
2003/4/7 10:00,0,1,0,0,0,1,0,0
2003/4/7 10:15,0,1,0,0,0,1,0,0
2003/4/7 10:30,0,1,0,0,0,1,0,0
2003/4/7 10:45,0,1,0,0,0,1,0,0
2003/4/7 11:00,0,1,0,0,0,1,0,0
2003/4/7 11:15,0,1,0,0,0,1,0,0
2003/4/7 11:30,0,1,0,0,0,1,0,0
2003/4/7 11:45,0,1,0,0,0,1,0,0
2003/4/7 12:00,0,1,0,0,0,1,0,0
2003/4/7 12:15,0,1,0,0,0,1,0,0
2003/4/7 12:30,0,1,0,0,0,1,0,0
2003/4/7 12:45,0,1,0,0,0,1,0,0
2003/4/7 13:00,0,1,0,0,0,1,0,0
2003/4/7 13:15,0,1,0,0,0,1,0,0
2003/4/7 13:30,0,1,0,0,0,1,0,0
2003/4/7 13:45,0,1,0,0,0,1,0,0
2003/4/7 14:00,0,1,0,0,0,1,0,0
2003/4/7 14:15,0,1,0,0,0,1,0,0
2003/4/7 14:30,0,1,0,0,0,1,0,0
2003/4/7 14:45,0,1,0,0,0,1,0,0
2003/4/7 15:00,0,1,0,0,0,1,0,0
2003/4/7 15:15,0,1,0,0,0,1,0,0
2003/4/7 15:30,0,1,0,0,0,1,0,0
2003/4/7 15:45,0,1,0,0,0,1,0,0
2003/4/7 16:00,0,1,0,0,0,1,0,0
2003/4/7 16:15,0,1,0,0,0,1,0,0
2003/4/7 16:30,0,1,0,0,0,1,0,0
2003/4/7 16:45,0,1,0,0,0,1,0,0
2003/4/7 17:00,0,1,0,0,0,1,0,0
2003/4/7 17:15,0,1,0,0,0,1,0,0
2003/4/7 17:30,0,1,0,0,0,1,0,0
2003/4/7 17:45,0,1,0,0,0,1,0,0
2003/4/7 18:00,0,1,0,0,0,1,0,0
2003/4/7 18:15,0,1,0,0,0,1,0,0
2003/4/7 18:30,0,1,0,0,0,1,0,0
2003/4/7 18:45,0,1,0,0,0,1,0,0
2003/4/7 19:00,0,1,0,0,0,1,0,0
2003/4/7 19:15,0,1,0,0,0,1,0,0
2003/4/7 19:30,0,1,0,0,0,1,0,0
2003/4/7 19:45,0,1,0,0,0,1,0,0
2003/4/7 20:00,0,1,0,0,0,1,0,0
2003/4/7 20:15,0,1,0,0,0,1,0,0
2003/4/7 20:30,0,1,0,0,0,1,0,0
2003/4/7 20:45,0,1,0,0,0,1,0,0
2003/4/7 21:00,0,1,0,0,0,1,0,0
2003/4/7 21:15,0,1,0,0,0,1,0,0
2003/4/7 21:30,0,1,0,0,0,1,0,0
2003/4/7 21:45,0,1,0,0,0,1,0,0
2003/4/7 22:00,0,1,0,0,0,1,0,0
2003/4/7 22:15,0,1,0,0,0,1,0,0
2003/4/7 22:30,0,1,0,0,0,1,0,0
2003/4/7 22:45,0,1,0,0,0,1,0,0
2003/4/7 23:00,0,1,0,0,0,1,0,0
2003/4/7 23:15,0,1,0,0,0,1,0,0
2003/4/7 23:30,0,1,0,0,0,1,0,0
2003/4/7 23:45,0,1,0,0,0,1,0,0
2003/4/8 0:00,0,1,0,0,0,1,0,0
2003/4/8 0:15,0,1,0,0,0,1,0,0
2003/4/8 0:30,0,1,0,0,0,1,0,0
2003/4/8 0:45,0,1,0,0,0,1,0,0
2003/4/8 1:00,0,1,0,0,0,1,0,0
2003/4/8 1:15,0,1,0,0,0,1,0,0
2003/4/8 1:30,0,1,0,0,0,1,0,0
2003/4/8 1:45,0,1,0,0,0,1,0,0
2003/4/8 2:00,0,1,0,0,0,1,0,0
2003/4/8 2:15,0,1,0,0,0,1,0,0
2003/4/8 2:30,0,1,0,0,0,1,0,0
2003/4/8 2:45,0,1,0,0,0,1,0,0
2003/4/8 3:00,0,1,0,0,0,1,0,0